Track STARLINK-3992 now! 10-day predictions STARLINK-3992 is classified as:
1 52627U 22052AF 22221.16667824 -.00030195 00000-0 -18864-2 0 9991 2 52627 53.2201 23.2930 0001473 66.2272 62.7479 15.08852924 13829